Location: Chandler
(33.3060°N, 111.8410°W)
Time: 00:02:39
(UTC-07:00)

Amateur Radio Satellites - All Passes

Search period start: 24 October 2014 23:32
Search period end: 25 October 2014 23:32
Location: Chandler, 33.3060°N, 111.8410°W

Satellite Date Start Highest point End Downlink Frequencies (MHz)
Time Altitude Azimuth
UOSAT-12 25 Oct 00:22:22 00:26:35 34° 248° (WSW) 00:30:43 437.025 FM, 437.400 FM
Oscar 16 25 Oct 00:46:50 00:49:16 13° 93° (E) 00:51:43 437.025 USB, Beacon 2401.1428
JAS-1B 25 Oct 00:48:48 00:53:46 19° 96° (E) 00:59:15 435.800 - 435.900 CW/SSB
RS-15 25 Oct 01:16:05 01:21:31 15° 334° (NNW) 01:26:59 29.354 - 29.394 USB, Beacon 29.352 USB
Oscar 19 25 Oct 01:38:08 01:43:04 48° 100° (E) 01:47:58 437.125 CW, 437.150 USB
AO-27 25 Oct 01:56:46 02:01:13 28° 97° (E) 02:05:38 436.795 MHz FM
AO-Echo 25 Oct 02:17:11 02:22:28 63° 101° (E) 02:27:42 ?
Sapphire 25 Oct 02:21:47 02:25:47 21° 106° (ESE) 02:29:48 437.095 MHz 1200 baud AX-25 AFSK
Oscar 16 25 Oct 02:23:54 02:28:54 55° 286° (WNW) 02:33:53 437.025 USB, Beacon 2401.1428
JAS-1B 25 Oct 02:37:36 02:44:25 67° 286° (WNW) 02:52:37 435.800 - 435.900 CW/SSB
PCSat 25 Oct 02:43:10 02:48:07 38° 109° (ESE) 02:53:06 145.825 MHz
Uribyol 2 25 Oct 02:43:44 02:48:58 90° 284° (WNW) 02:54:09 436.500 FM
ITAMSAT 1 25 Oct 02:49:49 02:55:04 84° 284° (WNW) 03:00:16 435.822 SSB
Gurwin Techsat 1B 25 Oct 03:11:00 03:16:21 81° 103° (ESE) 03:21:39 435.225 FM
Oscar 19 25 Oct 03:18:48 03:21:58 17° 294° (WNW) 03:25:08 437.125 CW, 437.150 USB
TMSAT-1 25 Oct 03:22:05 03:27:24 76° 102° (ESE) 03:32:41 436.925 FM
AO-27 25 Oct 03:36:10 03:40:36 29° 291° (WNW) 03:45:01 436.795 MHz FM
RS-15 25 Oct 03:39:43 03:41:24 10° 14° (NNE) 03:43:06 29.354 - 29.394 USB, Beacon 29.352 USB
AO-Echo 25 Oct 03:57:56 04:00:37 14° 295° (WNW) 04:03:18 ?
Uosat F 25 Oct 04:03:10 04:07:10 23° 96° (E) 04:11:08 435.120 FM
Sapphire 25 Oct 04:03:47 04:08:52 41° 300° (WNW) 04:13:59 437.095 MHz 1200 baud AX-25 AFSK
AO-7 25 Oct 04:16:16 04:24:15 49° 102° (ESE) 04:32:12 29.400 - 29.500 MHz
PCSat 25 Oct 04:27:14 04:31:35 25° 305° (NW) 04:35:59 145.825 MHz
OPAL 25 Oct 04:46:06 04:51:15 75° 73° (ENE) 04:56:21 ?
Gurwin Techsat 1B 25 Oct 04:54:29 04:55:33 11° 297° (WNW) 04:56:38 435.225 FM
Hamsat 25 Oct 05:04:35 05:05:24 11° 92° (E) 05:06:13 145.90 MHz
TMSAT-1 25 Oct 05:04:58 05:06:37 11° 297° (WNW) 05:08:15 436.925 FM
Uosat F 25 Oct 05:41:28 05:45:55 32° 290° (WNW) 05:50:21 435.120 FM
JAS-2 25 Oct 05:44:14 05:52:03 67° 101° (E) 05:59:42 435.800 - 435.900 CW/SSB, 435.910 FM
Saudisat 1A 25 Oct 05:48:31 05:50:46 14° 108° (ESE) 05:53:02 436.775 MHz
RS-15 25 Oct 05:49:11 05:58:58 33° 47° (NE) 06:09:01 29.354 - 29.394 USB, Beacon 29.352 USB
AO-7 25 Oct 06:09:32 06:16:40 33° 297° (WNW) 06:23:50 29.400 - 29.500 MHz
PANSAT 25 Oct 06:17:44 06:20:39 21° 163° (SSE) 06:23:33 not established
STRAND 1 25 Oct 06:31:11 06:36:17 80° 76° (ENE) 06:41:27 ?
Hamsat 25 Oct 06:37:30 06:41:32 47° 285° (WNW) 06:45:36 145.90 MHz
Saudisat 1A 25 Oct 07:25:43 07:29:54 44° 302° (WNW) 07:34:08 436.775 MHz
JAS-2 25 Oct 07:30:30 07:36:20 24° 296° (WNW) 07:42:10 435.800 - 435.900 CW/SSB, 435.910 FM
SO-67 25 Oct 07:33:44 07:37:11 81° 282° (WNW) 07:40:37 435.3500 MHz FM
PANSAT 25 Oct 07:56:50 08:00:24 37° 175° (S) 08:03:58 not established
RS-15 25 Oct 08:00:56 08:12:04 69° 247° (WSW) 08:23:43 29.354 - 29.394 USB, Beacon 29.352 USB
HO-68 25 Oct 08:22:21 08:27:55 24° 96° (E) 08:33:26 435.675 MHz FM
Oscar 10/S400 25 Oct 09:05:43 00:09:55 42° 228° (SW) 09:58:08 145.825 - 145.975 CW/USB, Beacon 145.810 USB
MaSat-1 25 Oct 09:12:40 09:15:09 77° 66° (ENE) 09:17:30 437.345 MHz
PANSAT 25 Oct 09:36:45 09:40:15 35° 188° (S) 09:43:46 not established
ZACube-1 25 Oct 09:46:20 09:48:47 15° 94° (E) 09:51:13 437.345 MHz
UKube-1 25 Oct 09:49:03 09:53:17 48° 100° (E) 09:57:29 145.840 MHz, 145.915 MHz
KITSAT 1 25 Oct 09:55:01 09:58:47 14° 101° (E) 10:02:33 435.175 FM
HO-68 25 Oct 10:08:53 10:15:50 54° 290° (WNW) 10:22:46 435.675 MHz FM
RS-15 25 Oct 10:20:38 10:22:29 11° 263° (W) 10:24:20 29.354 - 29.394 USB, Beacon 29.352 USB
FUNcube-1 25 Oct 10:29:31 10:33:39 53° 100° (E) 10:37:42 145.950 - 145.970 MHz USB
Oscar 11 25 Oct 10:30:06 10:34:18 54° 285° (WNW) 10:38:29 145.825 FM, Beacon 2401.500 USB
ISS 25 Oct 10:52:05 10:54:42 22° 129° (SE) 10:57:20 145.800 FM
PANSAT 25 Oct 11:17:26 11:19:58 17° 200° (SSW) 11:22:30 not established
ZACube-1 25 Oct 11:21:28 11:25:16 33° 288° (WNW) 11:28:59 437.345 MHz
UKube-1 25 Oct 11:27:12 11:29:00 12° 294° (WNW) 11:30:47 145.840 MHz, 145.915 MHz
SO-50 25 Oct 11:29:54 11:33:40 27° 111° (ESE) 11:37:31 436.795 FM
PCSat 25 Oct 11:36:32 11:39:28 15° 50° (NE) 11:42:23 145.825 MHz
KITSAT 1 25 Oct 11:44:58 11:53:03 90° 116° (ESE) 12:01:11 435.175 FM
Oscar 16 25 Oct 12:00:14 12:02:51 14° 65° (ENE) 12:05:28 437.025 USB, Beacon 2401.1428
FUNcube-1 25 Oct 12:09:13 12:09:30 10° 294° (WNW) 12:09:46 145.950 - 145.970 MHz USB
ISS 25 Oct 12:28:23 12:31:17 27° 323° (NW) 12:34:11 145.800 FM
Oscar 19 25 Oct 12:50:54 12:55:48 46° 73° (ENE) 13:00:41 437.125 CW, 437.150 USB
UOSAT-12 25 Oct 12:50:56 12:53:46 16° 108° (ESE) 12:56:38 437.025 FM, 437.400 FM
Sapphire 25 Oct 12:55:32 13:00:56 65° 63° (ENE) 13:06:18 437.095 MHz 1200 baud AX-25 AFSK
SO-50 25 Oct 13:10:25 13:14:08 25° 307° (NW) 13:17:57 436.795 FM
AO-27 25 Oct 13:11:00 13:15:24 29° 69° (ENE) 13:19:50 436.795 MHz FM
PCSat 25 Oct 13:18:00 13:23:25 72° 247° (WSW) 13:28:47 145.825 MHz
JAS-1B 25 Oct 13:19:55 13:26:02 73° 75° (ENE) 13:31:41 435.800 - 435.900 CW/SSB
AO-Echo 25 Oct 13:26:05 13:30:45 50° 73° (ENE) 13:35:35 ?
Oscar 16 25 Oct 13:36:34 13:41:39 59° 259° (W) 13:46:45 437.025 USB, Beacon 2401.1428
KITSAT 1 25 Oct 13:44:02 13:49:29 19° 315° (NW) 13:54:59 435.175 FM
Uribyol 2 25 Oct 13:57:19 14:02:32 89° 76° (ENE) 14:07:47 436.500 FM
ITAMSAT 1 25 Oct 14:03:34 14:08:46 85° 257° (WSW) 14:14:01 435.822 SSB
Gurwin Techsat 1B 25 Oct 14:27:52 14:33:10 84° 76° (ENE) 14:38:30 435.225 FM
UOSAT-12 25 Oct 14:29:07 14:33:30 43° 303° (WNW) 14:37:59 437.025 FM, 437.400 FM
Oscar 19 25 Oct 14:32:02 14:35:17 17° 266° (W) 14:38:33 437.125 CW, 437.150 USB
TMSAT-1 25 Oct 14:38:36 14:43:53 78° 76° (ENE) 14:49:12 436.925 FM
Sapphire 25 Oct 14:41:19 14:43:43 13° 257° (WSW) 14:46:06 437.095 MHz 1200 baud AX-25 AFSK
AO-27 25 Oct 14:50:23 14:54:48 28° 263° (W) 14:59:15 436.795 MHz FM
AO-Echo 25 Oct 15:07:19 15:09:48 14° 268° (W) 15:12:19 ?
AO-7 25 Oct 15:10:44 15:18:28 46° 66° (ENE) 15:26:12 29.400 - 29.500 MHz
Uosat F 25 Oct 15:12:48 15:16:33 22° 68° (ENE) 15:20:19 435.120 FM
JAS-1B 25 Oct 15:16:31 15:17:06 10° 267° (W) 15:17:41 435.800 - 435.900 CW/SSB
JAS-2 25 Oct 15:54:38 15:58:12 16° 60° (ENE) 16:02:00 435.800 - 435.900 CW/SSB, 435.910 FM
Saudisat 1A 25 Oct 15:56:08 16:00:20 41° 57° (ENE) 16:04:30 436.775 MHz
Uosat F 25 Oct 16:50:30 16:55:04 35° 262° (W) 16:59:40 435.120 FM
OPAL 25 Oct 17:00:51 17:05:01 27° 99° (E) 17:09:10 ?
AO-7 25 Oct 17:04:00 17:11:16 34° 261° (W) 17:18:35 29.400 - 29.500 MHz
Hamsat 25 Oct 17:26:15 17:30:26 68° 77° (ENE) 17:34:36 145.90 MHz
JAS-2 25 Oct 17:36:38 17:42:22 67° 259° (W) 17:48:54 435.800 - 435.900 CW/SSB, 435.910 FM
Saudisat 1A 25 Oct 17:36:56 17:39:31 15° 251° (WSW) 17:42:05 436.775 MHz
SO-67 25 Oct 18:03:23 18:05:31 16° 71° (ENE) 18:07:40 435.3500 MHz FM
OPAL 25 Oct 18:39:39 18:43:47 27° 293° (WNW) 18:47:55 ?
STRAND 1 25 Oct 18:46:20 18:51:07 38° 99° (E) 18:55:52 ?
HO-68 25 Oct 18:50:28 18:52:41 12° 56° (NE) 18:54:54 435.675 MHz FM
ISS 25 Oct 18:59:50 19:03:03 45° 41° (NE) 19:06:16 145.800 FM
SO-67 25 Oct 19:35:42 19:38:18 20° 264° (W) 19:40:55 435.3500 MHz FM
KITSAT 1 25 Oct 19:43:56 19:50:02 23° 47° (NE) 19:56:05 435.175 FM
SO-50 25 Oct 20:06:59 20:08:28 11° 46° (NE) 20:09:58 436.795 FM
RS-15 25 Oct 20:09:37 20:18:14 27° 104° (ESE) 20:26:42 29.354 - 29.394 USB, Beacon 29.352 USB
STRAND 1 25 Oct 20:26:13 20:30:00 21° 293° (WNW) 20:33:46 ?
HO-68 25 Oct 20:32:03 20:39:11 76° 73° (ENE) 20:46:21 435.675 MHz FM
ISS 25 Oct 20:37:56 20:39:24 12° 234° (SW) 20:40:53 145.800 FM
UKube-1 25 Oct 20:40:53 20:44:26 25° 70° (ENE) 20:48:00 145.840 MHz, 145.915 MHz
Oscar 11 25 Oct 21:20:37 21:24:54 67° 76° (ENE) 21:29:12 145.825 FM, Beacon 2401.500 USB
FUNcube-1 25 Oct 21:21:47 21:25:39 27° 71° (ENE) 21:29:29 145.950 - 145.970 MHz USB
KITSAT 1 25 Oct 21:38:08 21:46:11 76° 246° (WSW) 21:54:13 435.175 FM
SO-50 25 Oct 21:44:46 21:49:39 88° 244° (WSW) 21:54:32 436.795 FM
ZACube-1 25 Oct 22:12:43 22:17:19 74° 258° (WSW) 22:21:52 437.345 MHz
UKube-1 25 Oct 22:17:07 22:20:31 22° 264° (W) 22:23:57 145.840 MHz, 145.915 MHz
RS-15 25 Oct 22:18:37 22:29:35 68° 301° (WNW) 22:40:29 29.354 - 29.394 USB, Beacon 29.352 USB
HO-68 25 Oct 22:23:25 22:27:25 16° 267° (W) 22:31:27 435.675 MHz FM
MaSat-1 25 Oct 22:44:11 22:48:20 58° 110° (ESE) 22:52:09 437.345 MHz
FUNcube-1 25 Oct 22:58:20 23:01:56 23° 264° (W) 23:05:31 145.950 - 145.970 MHz USB
UOSAT-12 25 Oct 23:02:30 23:07:05 50° 58° (ENE) 23:11:33 437.025 FM, 437.400 FM
